This is the latest recevied weather packets stored in our database for station/object JE0GNV-13. If no packets are shown the sender has not sent any weather packets the latest 10 day(s).
| Time | Temp. | Humidity | Pressure | Rain* | Wind** | Luminosity | Snow |
|---|---|---|---|---|---|---|---|
| 1777814400 | 12.22° C | 97% | 1003.7 hPa | 3.81 mm | - | - | - |
| 1777813800 | 12.22° C | 96% | 1003.7 hPa | 4.06 mm | - | - | - |
| 1777813201 | 12.22° C | 96% | 1004 hPa | 4.06 mm | - | - | - |
| 1777812602 | 11.67° C | 96% | 1004.4 hPa | 3.81 mm | - | - | - |
| 1777812000 | 11.67° C | 96% | 1004.5 hPa | 4.06 mm | - | - | - |
| 1777811401 | 11.67° C | 96% | 1004.7 hPa | 4.06 mm | - | - | - |
| 1777810802 | 11.67° C | 96% | 1005.1 hPa | 3.56 mm | - | - | - |
| 1777810201 | 11.67° C | 96% | 1005.2 hPa | 3.3 mm | - | - | - |
| 1777809002 | 11.67° C | 96% | 1005.4 hPa | 2.79 mm | - | - | - |
| 1777808400 | 11.67° C | 96% | 1005.4 hPa | 2.79 mm | - | - | - |
| 1777807802 | 11.67° C | 96% | 1005.6 hPa | 2.79 mm | - | - | - |
| 1777807201 | 11.67° C | 95% | 1005.7 hPa | 2.79 mm | - | - | - |
| 1777806601 | 11.11° C | 95% | 1005.7 hPa | 2.54 mm | - | - | - |
| 1777806001 | 11.11° C | 95% | 1005.8 hPa | 2.79 mm | - | - | - |
| 1777805401 | 11.11° C | 95% | 1005.6 hPa | 2.79 mm | - | - | - |
| 1777804802 | 11.11° C | 94% | 1005.6 hPa | 2.79 mm | - | - | - |
| 1777804201 | 11.11° C | 93% | 1005.8 hPa | 2.29 mm | - | - | - |
| 1777803602 | 11.11° C | 93% | 1005.9 hPa | 1.78 mm | - | - | - |
| 1777803001 | 11.67° C | 92% | 1005.9 hPa | 1.52 mm | - | - | - |
| 1777802400 | 11.67° C | 91% | 1005.9 hPa | 1.02 mm | - | - | - |
| 1777801801 | 11.67° C | 89% | 1005.9 hPa | 0.51 mm | - | - | - |
| 1777801201 | 12.22° C | 88% | 1005.9 hPa | 0 mm | - | - | - |
| 1777800600 | 12.22° C | 86% | 1005.9 hPa | 0 mm | - | - | - |
| 1777800000 | 12.78° C | 84% | 1005.8 hPa | 0 mm | - | - | - |
| 1777799401 | 12.78° C | 81% | 1005.8 hPa | 0 mm | - | - | - |
* Rain latest hour (hover to see other rain measurements)
** Current wind speed in m/s (hover to see current wind gust speed)